| time (UTC) | temp F | wind direction | speed MPH | gust MPH | rain 1hr in | rain 24hr in | rain mn in | humidity % | barometer mb |
| 20260904054006 | 58 | 253 | 14.0 | 24.0 | 0.02 | 0.07 | 0.07 | 99 | 1011.9 |
| 20260904053507 | 58 | 253 | 16.0 | 22.0 | 0.02 | 0.07 | 0.07 | 99 | 1011.7 |
| 20260904053006 | 58 | 259 | 12.0 | 20.0 | 0.02 | 0.07 | 0.07 | 99 | 1011.5 |
| 20260904051507 | 58 | 262 | 13.0 | 25.0 | 0.02 | 0.08 | 0.07 | 99 | 1011.5 |
| 20260904050007 | 59 | 273 | 12.0 | 23.0 | 0.02 | 0.10 | 0.07 | 99 | 1011.3 |
| 20260904045506 | 59 | 281 | 10.0 | 30.0 | 0.02 | 0.09 | 0.07 | 99 | 1011.2 |
| 20260904045006 | 59 | 305 | 16.0 | 30.0 | 0.02 | 0.09 | 0.07 | 99 | 1011.0 |
| 20260904044005 | 59 | 314 | 25.0 | 38.0 | 0.01 | 0.08 | 0.06 | 99 | 1010.5 |
| 20260904042505 | 59 | 312 | 33.0 | 44.0 | 0.01 | 0.08 | 0.06 | 99 | 1010.2 |
| 20260904042007 | 59 | 319 | 30.0 | 44.0 | 0.01 | 0.08 | 0.06 | 98 | 1010.0 |
| 20260904041506 | 59 | 317 | 34.0 | 45.0 | 0.02 | 0.08 | 0.06 | 98 | 1010.1 |
| 20260904041005 | 59 | 314 | 30.0 | 45.0 | 0.02 | 0.08 | 0.06 | 98 | 1009.9 |
| 20260904040506 | 59 | 322 | 30.0 | 41.0 | 0.02 | 0.08 | 0.06 | 98 | 1010.3 |
| 20260904040006 | 59 | 316 | 29.0 | 38.0 | 0.02 | 0.08 | 0.06 | 98 | 1010.3 |
| 20260904033505 | 59 | 316 | 31.0 | 53.0 | 0.01 | 0.07 | 0.04 | 97 | 1010.2 |
| 20260904032506 | 59 | 321 | 32.0 | 47.0 | 0.01 | 0.07 | 0.04 | 97 | 1010.2 |
| 20260904031007 | 59 | 313 | 33.0 | 48.0 | 0.01 | 0.07 | 0.04 | 96 | 1010.3 |
| 20260904025005 | 59 | 317 | 35.0 | 46.0 | 0.01 | 0.06 | 0.04 | 96 | 1010.2 |
| 20260904024506 | 59 | 317 | 37.0 | 49.0 | 0.01 | 0.06 | 0.03 | 95 | 1010.2 |
| 20260904022007 | 59 | 311 | 33.0 | 53.0 | 0.03 | 0.06 | 0.03 | 96 | 1010.2 |
| 20260904021005 | 59 | 319 | 39.0 | 53.0 | 0.03 | 0.06 | 0.03 | 96 | 1010.2 |
| 20260904020507 | 59 | 311 | 35.0 | 52.0 | 0.03 | 0.06 | 0.03 | 96 | 1010.5 |
| 20260904020005 | 59 | 306 | 36.0 | 52.0 | 0.03 | 0.06 | 0.03 | 95 | 1010.1 |
| 20260904015505 | 59 | 309 | 34.0 | 52.0 | 0.03 | 0.06 | 0.03 | 95 | 1010.2 |
| 20260904014505 | 59 | 318 | 36.0 | 53.0 | 0.02 | 0.05 | 0.02 | 94 | 1010.1 |
| 20260904013507 | 59 | 322 | 41.0 | 58.0 | 0.02 | 0.05 | 0.02 | 93 | 1009.6 |
| 20260904012007 | 60 | 308 | 32.0 | 54.0 | 0.00 | 0.03 | 0.00 | 90 | 1010.9 |
| 20260904005007 | 61 | 309 | 35.0 | 49.0 | 0.00 | 0.03 | 0.00 | 88 | 1011.8 |
| 20260904004507 | 61 | 314 | 34.0 | 52.0 | 0.00 | 0.03 | 0.00 | 88 | 1012.0 |
| 20260904004005 | 61 | 311 | 40.0 | 52.0 | 0.00 | 0.03 | 0.00 | 87 | 1012.0 |
| 20260904003007 | 62 | 314 | 33.0 | 52.0 | 0.00 | 0.03 | 0.00 | 88 | 1012.2 |
| 20260904002505 | 62 | 317 | 41.0 | 52.0 | 0.00 | 0.03 | 0.00 | 87 | 1012.1 |
| 20260904002005 | 62 | 300 | 25.0 | 45.0 | 0.00 | 0.03 | 0.00 | 87 | 1012.3 |
| 20260903235504 | 62 | 315 | 28.0 | 43.0 | 0.00 | 0.03 | 0.00 | 89 | 1012.8 |
| 20260903235007 | 61 | 320 | 28.0 | 37.0 | 0.00 | 0.03 | 0.00 | 91 | 1013.0 |
| 20260903234505 | 61 | 323 | 30.0 | 46.0 | 0.00 | 0.03 | 0.00 | 91 | 1013.0 |
| 20260903233505 | 60 | 319 | 26.0 | 39.0 | 0.00 | 0.03 | 0.00 | 93 | 1013.1 |
| 20260903233007 | 59 | 322 | 32.0 | 48.0 | 0.00 | 0.03 | 0.00 | 93 | 1013.1 |
| 20260903232505 | 60 | 324 | 37.0 | 52.0 | 0.00 | 0.03 | 0.00 | 92 | 1013.2 |
| 20260903231505 | 60 | 317 | 27.0 | 39.0 | 0.00 | 0.03 | 0.00 | 92 | 1013.2 |
| 20260903231007 | 60 | 314 | 28.0 | 38.0 | 0.00 | 0.03 | 0.00 | 91 | 1013.2 |
| 20260903225005 | 60 | 318 | 27.0 | 47.0 | 0.00 | 0.03 | 0.00 | 89 | 1013.5 |
| 20260903224505 | 60 | 316 | 25.0 | 38.0 | 0.00 | 0.03 | 0.00 | 89 | 1013.3 |
| 20260903224006 | 60 | 314 | 26.0 | 40.0 | 0.00 | 0.03 | 0.00 | 89 | 1013.5 |
| 20260903223504 | 60 | 312 | 30.0 | 43.0 | 0.00 | 0.03 | 0.00 | 89 | 1013.5 |
| 20260903222507 | 60 | 316 | 30.0 | 39.0 | 0.00 | 0.03 | 0.00 | 88 | 1013.3 |
| 20260903222005 | 60 | 323 | 29.0 | 44.0 | 0.00 | 0.03 | 0.00 | 88 | 1013.3 |
| 20260903220505 | 60 | 326 | 25.0 | 40.0 | 0.00 | 0.03 | 0.00 | 89 | 1013.7 |
| 20260903214005 | 59 | 323 | 26.0 | 39.0 | 0.00 | 0.03 | 0.00 | 90 | 1014.0 |
| 20260903213006 | 59 | 321 | 26.0 | 33.0 | 0.00 | 0.03 | 0.00 | 90 | 1014.0 |
| 20260903212504 | 59 | 310 | 27.0 | 38.0 | 0.00 | 0.03 | 0.00 | 90 | 1013.8 |
| 20260903211507 | 59 | 320 | 32.0 | 45.0 | 0.00 | 0.03 | 0.00 | 90 | 1014.2 |
| 20260903211005 | 59 | 317 | 37.0 | 46.0 | 0.00 | 0.03 | 0.00 | 89 | 1014.0 |
| 20260903210506 | 58 | 317 | 28.0 | 36.0 | 0.00 | 0.03 | 0.00 | 89 | 1014.2 |
| 20260903210005 | 58 | 317 | 25.0 | 37.0 | 0.00 | 0.03 | 0.00 | 89 | 1014.2 |
| 20260903205507 | 58 | 323 | 26.0 | 35.0 | 0.00 | 0.03 | 0.00 | 89 | 1014.3 |
| 20260903203506 | 58 | 316 | 28.0 | 45.0 | 0.00 | 0.03 | 0.00 | 89 | 1014.5 |
| 20260903202505 | 58 | 304 | 30.0 | 37.0 | 0.00 | 0.03 | 0.00 | 89 | 1014.5 |
| 20260903202004 | 58 | 312 | 29.0 | 37.0 | 0.00 | 0.03 | 0.00 | 89 | 1014.4 |
| 20260903201506 | 58 | 320 | 32.0 | 40.0 | 0.00 | 0.03 | 0.00 | 88 | 1014.6 |
| 20260903200505 | 58 | 319 | 32.0 | 45.0 | 0.00 | 0.03 | 0.00 | 88 | 1014.3 |
| 20260903195504 | 58 | 314 | 28.0 | 38.0 | 0.00 | 0.03 | 0.00 | 90 | 1014.5 |
| 20260903193506 | 57 | 312 | 30.0 | 41.0 | 0.00 | 0.03 | 0.00 | 93 | 1014.3 |
| 20260903192005 | 57 | 307 | 31.0 | 38.0 | 0.00 | 0.03 | 0.00 | 94 | 1014.3 |
| 20260903191006 | 56 | 304 | 25.0 | 35.0 | 0.00 | 0.03 | 0.00 | 94 | 1014.5 |
| 20260903185505 | 56 | 316 | 29.0 | 40.0 | 0.00 | 0.03 | 0.00 | 94 | 1014.6 |
| 20260903183006 | 56 | 311 | 24.0 | 39.0 | 0.00 | 0.03 | 0.00 | 94 | 1014.8 |
| 20260903182004 | 57 | 306 | 26.0 | 35.0 | 0.00 | 0.03 | 0.00 | 94 | 1014.8 |
| 20260903181504 | 57 | 312 | 27.0 | 33.0 | 0.00 | 0.03 | 0.00 | 94 | 1014.9 |
| 20260903175505 | 57 | 311 | 28.0 | 33.0 | 0.00 | 0.03 | 0.00 | 95 | 1015.1 |
| 20260903175007 | 57 | 316 | 26.0 | 38.0 | 0.00 | 0.03 | 0.00 | 95 | 1015.0 |
| 20260903174505 | 57 | 319 | 26.0 | 40.0 | 0.00 | 0.03 | 0.00 | 95 | 1015.0 |
| 20260903174004 | 57 | 317 | 23.0 | 40.0 | 0.00 | 0.03 | 0.00 | 95 | 1015.0 |
| 20260903171506 | 57 | 311 | 21.0 | 35.0 | 0.00 | 0.03 | 0.00 | 95 | 1015.2 |
| 20260903171005 | 57 | 308 | 28.0 | 37.0 | 0.00 | 0.03 | 0.00 | 95 | 1015.2 |
| 20260903170505 | 57 | 321 | 26.0 | 35.0 | 0.00 | 0.03 | 0.00 | 95 | 1015.0 |
| 20260903165506 | 57 | 311 | 27.0 | 32.0 | 0.00 | 0.03 | 0.00 | 95 | 1015.0 |
| 20260903164507 | 57 | 321 | 23.0 | 35.0 | 0.00 | 0.05 | 0.00 | 96 | 1015.3 |
| 20260903164008 | 57 | 316 | 26.0 | 36.0 | 0.00 | 0.05 | 0.00 | 96 | 1015.2 |
| 20260903162506 | 57 | 318 | 26.0 | 38.0 | 0.00 | 0.06 | 0.00 | 96 | 1015.2 |
| 20260903160508 | 57 | 312 | 26.0 | 36.0 | 0.00 | 0.06 | 0.00 | 96 | 1015.1 |
| 20260903155507 | 58 | 317 | 26.0 | 33.0 | 0.00 | 0.06 | 0.00 | 96 | 1015.3 |
| 20260903155007 | 58 | 319 | 25.0 | 43.0 | 0.00 | 0.07 | 0.00 | 96 | 1015.5 |
| 20260903152006 | 58 | 313 | 18.0 | 29.0 | 0.00 | 0.18 | 0.00 | 95 | 1015.7 |
| 20260903151506 | 57 | 321 | 25.0 | 38.0 | 0.00 | 0.18 | 0.00 | 95 | 1015.6 |
| 20260903151006 | 57 | 323 | 22.0 | 36.0 | 0.00 | 0.18 | 0.00 | 95 | 1015.7 |
| 20260903150507 | 57 | 320 | 25.0 | 43.0 | 0.00 | 0.18 | 0.00 | 95 | 1015.7 |
| 20260903144508 | 57 | 322 | 22.0 | 30.0 | 0.00 | 0.18 | 0.00 | 95 | 1015.8 |
| 20260903142506 | 57 | 311 | 24.0 | 31.0 | 0.00 | 0.18 | 0.00 | 95 | 1016.3 |
| 20260903142007 | 58 | 308 | 20.0 | 30.0 | 0.00 | 0.18 | 0.00 | 96 | 1016.4 |
| 20260903140506 | 58 | 328 | 21.0 | 31.0 | 0.00 | 0.18 | 0.00 | 95 | 1016.5 |
| 20260903140007 | 58 | 316 | 22.0 | 32.0 | 0.00 | 0.18 | 0.00 | 95 | 1016.5 |
| 20260903134506 | 58 | 306 | 22.0 | 36.0 | 0.00 | 0.18 | 0.00 | 95 | 1016.6 |
| 20260903134008 | 58 | 314 | 22.0 | 33.0 | 0.00 | 0.18 | 0.00 | 96 | 1016.9 |
| 20260903133506 | 58 | 316 | 24.0 | 32.0 | 0.00 | 0.18 | 0.00 | 96 | 1016.6 |
| 20260903132008 | 58 | 320 | 26.0 | 37.0 | 0.00 | 0.18 | 0.00 | 96 | 1016.6 |
| 20260903131506 | 58 | 316 | 25.0 | 33.0 | 0.00 | 0.18 | 0.00 | 96 | 1016.6 |
| 20260903130507 | 58 | 320 | 25.0 | 32.0 | 0.00 | 0.18 | 0.00 | 96 | 1016.6 |
| 20260903130006 | 58 | 310 | 21.0 | 29.0 | 0.00 | 0.18 | 0.00 | 96 | 1016.9 |
| 20260903125006 | 58 | 320 | 24.0 | 32.0 | 0.00 | 0.18 | 0.00 | 96 | 1016.8 |
| 20260903123006 | 58 | 315 | 22.0 | 43.0 | 0.00 | 0.18 | 0.00 | 95 | 1016.8 |
| 20260903121506 | 58 | 311 | 25.0 | 36.0 | 0.00 | 0.18 | 0.00 | 95 | 1016.9 |
| 20260903121007 | 58 | 314 | 25.0 | 31.0 | 0.00 | 0.18 | 0.00 | 96 | 1016.8 |
| 20260903120507 | 58 | 319 | 26.0 | 32.0 | 0.00 | 0.18 | 0.00 | 96 | 1016.7 |
| 20260903115006 | 58 | 316 | 23.0 | 30.0 | 0.00 | 0.18 | 0.18 | 96 | 1016.9 |
| 20260903113506 | 58 | 323 | 20.0 | 29.0 | 0.00 | 0.18 | 0.18 | 96 | 1016.9 |
| 20260903113006 | 58 | 310 | 18.0 | 28.0 | 0.00 | 0.18 | 0.18 | 96 | 1016.8 |
| 20260903112507 | 58 | 312 | 18.0 | 26.0 | 0.00 | 0.18 | 0.18 | 96 | 1016.9 |
| 20260903111506 | 58 | 316 | 25.0 | 31.0 | 0.00 | 0.18 | 0.18 | 97 | 1017.0 |
| 20260903111008 | 58 | 319 | 23.0 | 26.0 | 0.00 | 0.18 | 0.18 | 97 | 1017.1 |
| 20260903110506 | 58 | 320 | 21.0 | 29.0 | 0.00 | 0.18 | 0.18 | 97 | 1017.1 |
| 20260903105006 | 58 | 317 | 18.0 | 29.0 | 0.00 | 0.18 | 0.18 | 96 | 1017.1 |
| 20260903104007 | 58 | 311 | 20.0 | 29.0 | 0.00 | 0.18 | 0.18 | 96 | 1017.4 |
| 20260903102505 | 58 | 318 | 21.0 | 31.0 | 0.00 | 0.18 | 0.18 | 97 | 1017.2 |
| 20260903100506 | 58 | 322 | 19.0 | 29.0 | 0.00 | 0.18 | 0.18 | 97 | 1017.5 |
| 20260903100008 | 58 | 322 | 22.0 | 30.0 | 0.00 | 0.18 | 0.18 | 97 | 1017.5 |
| 20260903095006 | 58 | 319 | 17.0 | 29.0 | 0.00 | 0.18 | 0.18 | 97 | 1017.5 |
| 20260903094007 | 58 | 316 | 21.0 | 30.0 | 0.00 | 0.18 | 0.18 | 97 | 1017.6 |
| 20260903093506 | 58 | 314 | 20.0 | 28.0 | 0.00 | 0.18 | 0.18 | 97 | 1017.4 |
| 20260903092005 | 58 | 309 | 22.0 | 30.0 | 0.00 | 0.18 | 0.18 | 97 | 1017.2 |
| 20260903091506 | 58 | 309 | 17.0 | 28.0 | 0.00 | 0.19 | 0.18 | 97 | 1017.4 |
| 20260903091007 | 58 | 303 | 18.0 | 30.0 | 0.00 | 0.19 | 0.18 | 97 | 1017.2 |
| 20260903090506 | 58 | 309 | 22.0 | 30.0 | 0.00 | 0.19 | 0.18 | 97 | 1017.2 |
| 20260903090006 | 58 | 314 | 22.0 | 29.0 | 0.00 | 0.19 | 0.18 | 97 | 1017.3 |
| 20260903085007 | 58 | 312 | 13.0 | 25.0 | 0.00 | 0.19 | 0.18 | 97 | 1017.5 |
| 20260903084505 | 58 | 307 | 20.0 | 26.0 | 0.00 | 0.19 | 0.18 | 97 | 1017.3 |
| 20260903082505 | 58 | 309 | 21.0 | 30.0 | 0.00 | 0.20 | 0.18 | 97 | 1017.3 |
| 20260903081006 | 58 | 313 | 21.0 | 26.0 | 0.00 | 0.20 | 0.18 | 97 | 1017.3 |
| 20260903080007 | 58 | 314 | 23.0 | 29.0 | 0.00 | 0.20 | 0.18 | 97 | 1017.3 |
| 20260903075506 | 58 | 311 | 20.0 | 29.0 | 0.00 | 0.20 | 0.18 | 97 | 1017.2 |
| 20260903075006 | 58 | 314 | 22.0 | 29.0 | 0.00 | 0.20 | 0.18 | 97 | 1017.1 |
| 20260903074506 | 58 | 311 | 21.0 | 29.0 | 0.00 | 0.20 | 0.18 | 97 | 1017.3 |
| 20260903074007 | 57 | 312 | 21.0 | 26.0 | 0.00 | 0.20 | 0.18 | 97 | 1017.1 |
| 20260903073507 | 58 | 313 | 18.0 | 28.0 | 0.00 | 0.20 | 0.18 | 97 | 1017.1 |
| 20260903073006 | 58 | 320 | 21.0 | 25.0 | 0.00 | 0.20 | 0.18 | 97 | 1017.0 |
| 20260903072505 | 58 | 313 | 20.0 | 25.0 | 0.00 | 0.20 | 0.18 | 97 | 1017.1 |
| 20260903072006 | 58 | 309 | 21.0 | 30.0 | 0.00 | 0.20 | 0.18 | 97 | 1017.2 |
| 20260903071507 | 58 | 313 | 23.0 | 30.0 | 0.00 | 0.20 | 0.18 | 97 | 1016.8 |
| 20260903071006 | 58 | 310 | 22.0 | 30.0 | 0.00 | 0.20 | 0.18 | 97 | 1016.7 |
| 20260903065006 | 57 | 320 | 22.0 | 28.0 | 0.00 | 0.20 | 0.18 | 96 | 1016.8 |
| 20260903062006 | 57 | 319 | 23.0 | 31.0 | 0.00 | 0.20 | 0.18 | 95 | 1016.8 |
| 20260903061006 | 57 | 312 | 25.0 | 32.0 | 0.02 | 0.20 | 0.18 | 95 | 1016.7 |
| 20260903060506 | 57 | 320 | 21.0 | 31.0 | 0.02 | 0.20 | 0.18 | 94 | 1016.7 |
| 20260903055508 | 57 | 312 | 17.0 | 25.0 | 0.03 | 0.20 | 0.18 | 94 | 1016.8 |
| 20260903055005 | 57 | 259 | 10.0 | 28.0 | 0.03 | 0.20 | 0.18 | 94 | 1016.6 |